TimeEDT,TemperatureF,Dew PointF,Humidity,Sea Level PressureIn,VisibilityMPH,Wind Direction,Wind SpeedMPH,Gust SpeedMPH,PrecipitationIn,Events,Conditions,WindDirDegrees,DateUTC
12:53 AM,75.0,64.9,71,29.91,10.0,NW,3.5,-,N/A,,Mostly Cloudy,310,2013-07-08 04:53:00
1:53 AM,73.0,64.9,76,29.92,10.0,Calm,Calm,-,0.00,Rain,Light Rain,0,2013-07-08 05:53:00
2:53 AM,73.0,66.0,79,29.91,10.0,North,6.9,-,0.00,,Overcast,10,2013-07-08 06:53:00
3:53 AM,70.0,59.0,68,29.93,10.0,North,10.4,-,N/A,,Overcast,10,2013-07-08 07:53:00
4:53 AM,64.9,52.0,63,29.96,9.0,North,9.2,-,0.00,Rain,Light Rain,360,2013-07-08 08:53:00
5:53 AM,57.9,53.1,84,30.00,8.0,NE,8.1,-,0.08,Rain,Light Rain,40,2013-07-08 09:53:00
6:04 AM,57.2,53.6,88,30.01,1.2,NE,10.4,-,0.11,Rain,Heavy Rain,40,2013-07-08 10:04:00
6:16 AM,57.2,53.6,88,30.00,2.0,NE,9.2,-,0.14,Rain,Light Rain,40,2013-07-08 10:16:00
6:27 AM,57.2,53.6,88,30.00,10.0,ENE,8.1,-,0.14,Rain,Light Rain,60,2013-07-08 10:27:00
6:53 AM,57.9,55.0,90,30.00,5.0,East,3.5,-,0.16,Rain,Rain,80,2013-07-08 10:53:00
7:53 AM,59.0,55.9,90,30.02,7.0,North,3.5,-,0.06,Rain,Light Rain,10,2013-07-08 11:53:00
8:53 AM,61.0,55.9,83,30.01,10.0,North,6.9,-,0.00,,Overcast,10,2013-07-08 12:53:00
9:53 AM,62.1,57.0,84,30.01,10.0,North,6.9,-,0.00,,Overcast,350,2013-07-08 13:53:00
10:53 AM,64.0,57.9,80,30.02,10.0,North,6.9,-,0.00,Rain,Light Rain,360,2013-07-08 14:53:00
11:53 AM,64.9,57.9,78,30.02,10.0,North,5.8,-,0.00,,Overcast,10,2013-07-08 15:53:00
12:53 PM,69.1,57.0,65,30.02,10.0,Variable,5.8,-,N/A,,Mostly Cloudy,0,2013-07-08 16:53:00
1:53 PM,71.1,59.0,66,30.02,10.0,North,6.9,-,N/A,,Mostly Cloudy,10,2013-07-08 17:53:00
2:53 PM,72.0,57.9,61,30.02,10.0,NNW,5.8,-,N/A,,Mostly Cloudy,340,2013-07-08 18:53:00
3:53 PM,75.0,59.0,57,30.02,10.0,North,8.1,-,N/A,,Mostly Cloudy,350,2013-07-08 19:53:00
4:53 PM,73.0,57.0,57,30.01,10.0,Variable,3.5,-,N/A,,Mostly Cloudy,0,2013-07-08 20:53:00
5:53 PM,73.0,57.9,59,30.02,10.0,NE,3.5,-,N/A,,Mostly Cloudy,40,2013-07-08 21:53:00
6:53 PM,73.9,57.0,55,30.01,10.0,NE,4.6,-,N/A,,Scattered Clouds,40,2013-07-08 22:53:00
7:53 PM,72.0,59.0,64,30.03,10.0,Calm,Calm,-,N/A,,Scattered Clouds,0,2013-07-08 23:53:00
8:53 PM,64.0,60.1,87,30.05,10.0,Calm,Calm,-,N/A,,Scattered Clouds,0,2013-07-09 00:53:00
9:53 PM,63.0,60.1,90,30.06,10.0,Calm,Calm,-,N/A,,Scattered Clouds,0,2013-07-09 01:53:00
10:53 PM,63.0,60.1,90,30.07,10.0,Calm,Calm,-,N/A,,Clear,0,2013-07-09 02:53:00
11:53 PM,61.0,60.1,97,30.08,10.0,Calm,Calm,-,N/A,,Mostly Cloudy,0,2013-07-09 03:53:00